Time,TemperatureF,DewpointF,PressureIn,WindDirection,WindDirectionDegrees,WindSpeedMPH,WindSpeedGustMPH,Humidity,HourlyPrecipIn,Conditions,Clouds,dailyrainin,SoftwareType,DateUTC
2013-03-23 00:00:00,46.4,26.7,30.03,WSW,248,2.0,-999.0,46,0.00,,,0.00,Wunderground v.1.15,2013-03-23 04:00:00,
2013-03-23 00:05:00,46.4,26.7,30.03,WSW,248,2.0,-999.0,46,0.00,,,0.00,Wunderground v.1.15,2013-03-23 04:05:00,
2013-03-23 00:10:00,46.4,26.7,30.03,WSW,248,2.0,-999.0,46,0.00,,,0.00,Wunderground v.1.15,2013-03-23 04:10:00,
2013-03-23 00:15:00,46.4,26.7,30.03,WSW,248,2.0,-999.0,46,0.00,,,0.00,Wunderground v.1.15,2013-03-23 04:15:00,
2013-03-23 00:20:00,46.4,26.7,30.03,WSW,248,2.0,-999.0,46,0.00,,,0.00,Wunderground v.1.15,2013-03-23 04:20:00,
2013-03-23 00:25:00,46.4,26.7,30.03,WSW,248,2.0,-999.0,46,0.00,,,0.00,Wunderground v.1.15,2013-03-23 04:25:00,
2013-03-23 00:30:00,46.4,26.7,30.03,WSW,248,2.0,-999.0,46,0.00,,,0.00,Wunderground v.1.15,2013-03-23 04:30:00,
2013-03-23 00:35:00,46.4,26.7,30.03,WSW,248,2.0,-999.0,46,0.00,,,0.00,Wunderground v.1.15,2013-03-23 04:35:00,
2013-03-23 00:40:00,46.4,26.7,30.03,WSW,248,2.0,-999.0,46,0.00,,,0.00,Wunderground v.1.15,2013-03-23 04:40:00,
2013-03-23 00:45:00,46.4,27.8,30.03,WSW,248,2.0,-999.0,48,0.00,,,0.00,Wunderground v.1.15,2013-03-23 04:45:00,
2013-03-23 00:50:00,46.4,27.8,30.03,WSW,248,2.0,-999.0,48,0.00,,,0.00,Wunderground v.1.15,2013-03-23 04:50:00,
2013-03-23 00:55:00,46.4,27.8,30.03,WSW,248,2.0,-999.0,48,0.00,,,0.00,Wunderground v.1.15,2013-03-23 04:55:00,
2013-03-23 01:00:00,46.4,27.8,30.03,WSW,248,2.0,-999.0,48,0.00,,,0.00,Wunderground v.1.15,2013-03-23 05:00:00,
2013-03-23 01:05:00,46.4,27.8,30.03,WSW,248,2.0,-999.0,48,0.00,,,0.00,Wunderground v.1.15,2013-03-23 05:05:00,
2013-03-23 01:10:00,46.4,27.8,30.03,WSW,248,2.0,-999.0,48,0.00,,,0.00,Wunderground v.1.15,2013-03-23 05:10:00,
2013-03-23 01:15:00,46.1,27.0,30.03,SW,225,0.0,-999.0,47,0.00,,,0.00,Wunderground v.1.15,2013-03-23 05:15:00,
2013-03-23 01:20:00,46.1,27.0,30.03,SW,225,0.0,-999.0,47,0.00,,,0.00,Wunderground v.1.15,2013-03-23 05:20:00,
2013-03-23 01:25:00,46.1,27.0,30.03,SW,225,0.0,-999.0,47,0.00,,,0.00,Wunderground v.1.15,2013-03-23 05:25:00,
2013-03-23 01:30:00,46.1,27.0,30.03,SW,225,0.0,-999.0,47,0.00,,,0.00,Wunderground v.1.15,2013-03-23 05:30:00,
2013-03-23 01:35:00,46.1,27.0,30.03,SW,225,0.0,-999.0,47,0.00,,,0.00,Wunderground v.1.15,2013-03-23 05:35:00,
2013-03-23 01:40:00,46.1,27.0,30.03,SW,225,0.0,-999.0,47,0.00,,,0.00,Wunderground v.1.15,2013-03-23 05:40:00,
2013-03-23 01:45:00,45.9,27.3,30.02,SW,225,0.0,-999.0,48,0.00,,,0.00,Wunderground v.1.15,2013-03-23 05:45:00,
2013-03-23 01:50:00,45.9,27.3,30.02,SW,225,0.0,-999.0,48,0.00,,,0.00,Wunderground v.1.15,2013-03-23 05:50:00,
2013-03-23 01:55:00,45.9,27.3,30.02,SW,225,0.0,-999.0,48,0.00,,,0.00,Wunderground v.1.15,2013-03-23 05:55:00,
2013-03-23 02:00:00,45.9,27.3,30.02,SW,225,0.0,-999.0,48,0.00,,,0.00,Wunderground v.1.15,2013-03-23 06:00:00,
2013-03-23 02:05:00,45.9,27.3,30.02,SW,225,0.0,-999.0,48,0.00,,,0.00,Wunderground v.1.15,2013-03-23 06:05:00,
2013-03-23 02:10:00,45.9,27.3,30.02,SW,225,0.0,-999.0,48,0.00,,,0.00,Wunderground v.1.15,2013-03-23 06:10:00,
2013-03-23 02:15:00,44.5,28.0,30.02,WSW,248,0.0,-999.0,52,0.00,,,0.00,Wunderground v.1.15,2013-03-23 06:15:00,
2013-03-23 02:20:00,44.5,28.0,30.02,WSW,248,0.0,-999.0,52,0.00,,,0.00,Wunderground v.1.15,2013-03-23 06:20:00,
2013-03-23 02:25:00,44.5,28.0,30.02,WSW,248,0.0,-999.0,52,0.00,,,0.00,Wunderground v.1.15,2013-03-23 06:25:00,
2013-03-23 02:30:00,44.5,28.0,30.02,WSW,248,0.0,-999.0,52,0.00,,,0.00,Wunderground v.1.15,2013-03-23 06:30:00,
2013-03-23 02:35:00,44.5,28.0,30.02,WSW,248,0.0,-999.0,52,0.00,,,0.00,Wunderground v.1.15,2013-03-23 06:35:00,
2013-03-23 02:40:00,44.5,28.0,30.02,WSW,248,0.0,-999.0,52,0.00,,,0.00,Wunderground v.1.15,2013-03-23 06:40:00,
2013-03-23 02:45:00,42.1,27.1,30.01,WSW,248,0.0,-999.0,55,0.00,,,0.00,Wunderground v.1.15,2013-03-23 06:45:00,
2013-03-23 02:50:00,42.1,27.1,30.01,WSW,248,0.0,-999.0,55,0.00,,,0.00,Wunderground v.1.15,2013-03-23 06:50:00,
2013-03-23 02:55:00,42.1,27.1,30.01,WSW,248,0.0,-999.0,55,0.00,,,0.00,Wunderground v.1.15,2013-03-23 06:55:00,
2013-03-23 03:00:00,42.1,27.1,30.01,WSW,248,0.0,-999.0,55,0.00,,,0.00,Wunderground v.1.15,2013-03-23 07:00:00,
2013-03-23 03:05:00,42.1,27.1,30.01,WSW,248,0.0,-999.0,55,0.00,,,0.00,Wunderground v.1.15,2013-03-23 07:05:00,
2013-03-23 03:10:00,42.1,27.1,30.01,WSW,248,0.0,-999.0,55,0.00,,,0.00,Wunderground v.1.15,2013-03-23 07:10:00,
2013-03-23 03:15:00,41.0,27.3,30.01,WSW,248,0.0,-999.0,58,0.00,,,0.00,Wunderground v.1.15,2013-03-23 07:15:00,
2013-03-23 03:20:00,41.0,27.3,30.01,WSW,248,0.0,-999.0,58,0.00,,,0.00,Wunderground v.1.15,2013-03-23 07:20:00,
2013-03-23 03:25:00,41.0,27.3,30.01,WSW,248,0.0,-999.0,58,0.00,,,0.00,Wunderground v.1.15,2013-03-23 07:25:00,
2013-03-23 03:30:00,41.0,27.3,30.01,WSW,248,0.0,-999.0,58,0.00,,,0.00,Wunderground v.1.15,2013-03-23 07:30:00,
2013-03-23 03:35:00,41.0,27.3,30.01,WSW,248,0.0,-999.0,58,0.00,,,0.00,Wunderground v.1.15,2013-03-23 07:35:00,
2013-03-23 03:40:00,41.0,27.3,30.01,WSW,248,0.0,-999.0,58,0.00,,,0.00,Wunderground v.1.15,2013-03-23 07:40:00,
2013-03-23 03:45:00,40.2,27.8,30.00,WSW,248,0.0,-999.0,61,0.00,,,0.00,Wunderground v.1.15,2013-03-23 07:45:00,
2013-03-23 03:50:00,40.2,27.8,30.00,WSW,248,0.0,-999.0,61,0.00,,,0.00,Wunderground v.1.15,2013-03-23 07:50:00,
2013-03-23 03:55:00,40.2,27.8,30.00,WSW,248,0.0,-999.0,61,0.00,,,0.00,Wunderground v.1.15,2013-03-23 07:55:00,
2013-03-23 04:00:00,40.2,27.8,30.00,WSW,248,0.0,-999.0,61,0.00,,,0.00,Wunderground v.1.15,2013-03-23 08:00:00,
2013-03-23 04:05:00,40.2,27.8,30.00,WSW,248,0.0,-999.0,61,0.00,,,0.00,Wunderground v.1.15,2013-03-23 08:05:00,
2013-03-23 04:10:00,40.2,27.8,30.00,WSW,248,0.0,-999.0,61,0.00,,,0.00,Wunderground v.1.15,2013-03-23 08:10:00,
2013-03-23 04:15:00,40.3,28.3,30.00,WSW,248,0.0,-999.0,62,0.00,,,0.00,Wunderground v.1.15,2013-03-23 08:15:00,
2013-03-23 04:20:00,40.3,28.3,30.00,WSW,248,0.0,-999.0,62,0.00,,,0.00,Wunderground v.1.15,2013-03-23 08:20:00,
2013-03-23 04:25:00,40.3,28.3,30.00,WSW,248,0.0,-999.0,62,0.00,,,0.00,Wunderground v.1.15,2013-03-23 08:25:00,
2013-03-23 04:30:00,40.3,28.3,30.00,WSW,248,0.0,-999.0,62,0.00,,,0.00,Wunderground v.1.15,2013-03-23 08:30:00,
2013-03-23 04:35:00,40.3,28.3,30.00,WSW,248,0.0,-999.0,62,0.00,,,0.00,Wunderground v.1.15,2013-03-23 08:35:00,
2013-03-23 04:40:00,40.3,28.3,30.00,WSW,248,0.0,-999.0,62,0.00,,,0.00,Wunderground v.1.15,2013-03-23 08:40:00,
2013-03-23 04:45:00,39.9,28.7,30.00,N/A,-737280,0.0,-999.0,64,0.00,,,0.00,Wunderground v.1.15,2013-03-23 08:45:00,
2013-03-23 04:50:00,39.9,28.7,30.00,N/A,-737280,0.0,-999.0,64,0.00,,,0.00,Wunderground v.1.15,2013-03-23 08:50:00,
2013-03-23 04:55:00,39.9,28.7,30.00,N/A,-737280,0.0,-999.0,64,0.00,,,0.00,Wunderground v.1.15,2013-03-23 08:55:00,
2013-03-23 05:00:00,39.9,28.7,30.00,N/A,-737280,0.0,-999.0,64,0.00,,,0.00,Wunderground v.1.15,2013-03-23 09:00:00,
2013-03-23 05:05:00,39.9,28.7,30.00,N/A,-737280,0.0,-999.0,64,0.00,,,0.00,Wunderground v.1.15,2013-03-23 09:05:00,
2013-03-23 05:10:00,39.9,28.7,30.00,N/A,-737280,0.0,-999.0,64,0.00,,,0.00,Wunderground v.1.15,2013-03-23 09:10:00,
2013-03-23 05:15:00,39.8,28.6,29.99,N/A,-737280,0.0,-999.0,64,0.00,,,0.00,Wunderground v.1.15,2013-03-23 09:15:00,
2013-03-23 05:20:00,39.8,28.6,29.99,N/A,-737280,0.0,-999.0,64,0.00,,,0.00,Wunderground v.1.15,2013-03-23 09:20:00,
2013-03-23 05:25:00,39.8,28.6,29.99,N/A,-737280,0.0,-999.0,64,0.00,,,0.00,Wunderground v.1.15,2013-03-23 09:25:00,
2013-03-23 05:30:00,39.8,28.6,29.99,N/A,-737280,0.0,-999.0,64,0.00,,,0.00,Wunderground v.1.15,2013-03-23 09:30:00,
2013-03-23 05:35:00,39.8,28.6,29.99,N/A,-737280,0.0,-999.0,64,0.00,,,0.00,Wunderground v.1.15,2013-03-23 09:35:00,
2013-03-23 05:40:00,39.8,28.6,29.99,N/A,-737280,0.0,-999.0,64,0.00,,,0.00,Wunderground v.1.15,2013-03-23 09:40:00,
2013-03-23 05:45:00,40.4,29.9,29.99,N/A,-737280,0.0,-999.0,66,0.00,,,0.00,Wunderground v.1.15,2013-03-23 09:45:00,
2013-03-23 05:50:00,40.4,29.9,29.99,N/A,-737280,0.0,-999.0,66,0.00,,,0.00,Wunderground v.1.15,2013-03-23 09:50:00,
2013-03-23 05:55:00,40.4,29.9,29.99,N/A,-737280,0.0,-999.0,66,0.00,,,0.00,Wunderground v.1.15,2013-03-23 09:55:00,
2013-03-23 06:00:00,40.4,29.9,29.99,N/A,-737280,0.0,-999.0,66,0.00,,,0.00,Wunderground v.1.15,2013-03-23 10:00:00,
2013-03-23 06:05:00,40.4,29.9,29.99,N/A,-737280,0.0,-999.0,66,0.00,,,0.00,Wunderground v.1.15,2013-03-23 10:05:00,
2013-03-23 06:10:00,40.4,29.9,29.99,N/A,-737280,0.0,-999.0,66,0.00,,,0.00,Wunderground v.1.15,2013-03-23 10:10:00,
2013-03-23 06:15:00,41.6,32.2,30.00,WSW,248,0.0,-999.0,69,0.00,,,0.00,Wunderground v.1.15,2013-03-23 10:15:00,
2013-03-23 06:20:00,41.6,32.2,30.00,WSW,248,0.0,-999.0,69,0.00,,,0.00,Wunderground v.1.15,2013-03-23 10:20:00,
2013-03-23 06:25:00,41.6,32.2,30.00,WSW,248,0.0,-999.0,69,0.00,,,0.00,Wunderground v.1.15,2013-03-23 10:25:00,
2013-03-23 06:30:00,41.6,32.2,30.00,WSW,248,0.0,-999.0,69,0.00,,,0.00,Wunderground v.1.15,2013-03-23 10:30:00,
2013-03-23 06:35:00,41.6,32.2,30.00,WSW,248,0.0,-999.0,69,0.00,,,0.00,Wunderground v.1.15,2013-03-23 10:35:00,
2013-03-23 06:40:00,41.6,32.2,30.00,WSW,248,0.0,-999.0,69,0.00,,,0.00,Wunderground v.1.15,2013-03-23 10:40:00,
2013-03-23 06:45:00,42.3,33.9,30.01,WSW,248,0.0,-999.0,72,0.00,,,0.00,Wunderground v.1.15,2013-03-23 10:45:00,
2013-03-23 06:50:00,42.3,33.9,30.01,WSW,248,0.0,-999.0,72,0.00,,,0.00,Wunderground v.1.15,2013-03-23 10:50:00,
2013-03-23 06:55:00,42.3,33.9,30.01,WSW,248,0.0,-999.0,72,0.00,,,0.00,Wunderground v.1.15,2013-03-23 10:55:00,
2013-03-23 07:00:00,42.3,33.9,30.01,WSW,248,0.0,-999.0,72,0.00,,,0.00,Wunderground v.1.15,2013-03-23 11:00:00,
2013-03-23 07:05:00,42.3,33.9,30.01,WSW,248,0.0,-999.0,72,0.00,,,0.00,Wunderground v.1.15,2013-03-23 11:05:00,
2013-03-23 07:10:00,42.3,33.9,30.01,WSW,248,0.0,-999.0,72,0.00,,,0.00,Wunderground v.1.15,2013-03-23 11:10:00,
2013-03-23 07:15:00,42.8,35.4,30.03,N/A,-737280,0.0,-999.0,75,0.00,,,0.00,Wunderground v.1.15,2013-03-23 11:15:00,
2013-03-23 07:20:00,42.8,35.4,30.03,N/A,-737280,0.0,-999.0,75,0.00,,,0.00,Wunderground v.1.15,2013-03-23 11:20:00,
2013-03-23 07:25:00,42.8,35.4,30.03,N/A,-737280,0.0,-999.0,75,0.00,,,0.00,Wunderground v.1.15,2013-03-23 11:25:00,
2013-03-23 07:30:00,42.8,35.4,30.03,N/A,-737280,0.0,-999.0,75,0.00,,,0.00,Wunderground v.1.15,2013-03-23 11:30:00,
2013-03-23 07:35:00,42.8,35.4,30.03,N/A,-737280,0.0,-999.0,75,0.00,,,0.00,Wunderground v.1.15,2013-03-23 11:35:00,
2013-03-23 07:40:00,42.8,35.4,30.03,N/A,-737280,0.0,-999.0,75,0.00,,,0.00,Wunderground v.1.15,2013-03-23 11:40:00,
2013-03-23 07:45:00,43.3,36.9,30.03,N/A,-737280,0.0,-999.0,78,0.00,,,0.00,Wunderground v.1.15,2013-03-23 11:45:00,
2013-03-23 07:50:00,43.3,36.9,30.03,N/A,-737280,0.0,-999.0,78,0.00,,,0.00,Wunderground v.1.15,2013-03-23 11:50:00,
2013-03-23 07:55:00,43.3,36.9,30.03,N/A,-737280,0.0,-999.0,78,0.00,,,0.00,Wunderground v.1.15,2013-03-23 11:55:00,
2013-03-23 08:00:00,43.3,36.9,30.03,N/A,-737280,0.0,-999.0,78,0.00,,,0.00,Wunderground v.1.15,2013-03-23 12:00:00,
2013-03-23 09:05:00,43.8,36.4,30.03,WSW,250,0.0,0.0,75,0.00,,,0.00,Wunderground v.1.15,2013-03-23 13:05:00,
2013-03-23 09:10:00,43.9,36.5,30.04,WSW,250,0.0,0.0,75,0.00,,,0.00,Wunderground v.1.15,2013-03-23 13:10:00,
2013-03-23 09:15:00,44.0,35.9,30.03,WSW,250,0.0,0.0,73,0.00,,,0.00,Wunderground v.1.15,2013-03-23 13:15:00,
2013-03-23 09:20:00,44.1,36.3,30.03,WSW,250,0.0,0.0,74,0.00,,,0.00,Wunderground v.1.15,2013-03-23 13:20:00,
2013-03-23 09:25:00,44.3,36.5,30.03,WSW,250,0.0,0.0,74,0.00,,,0.00,Wunderground v.1.15,2013-03-23 13:25:00,
2013-03-23 09:30:00,44.4,36.6,30.03,WSW,250,0.0,0.0,74,0.00,,,0.00,Wunderground v.1.15,2013-03-23 13:30:00,
2013-03-23 09:35:00,44.5,36.4,30.03,West,267,0.0,0.0,73,0.00,,,0.00,Wunderground v.1.15,2013-03-23 13:35:00,
2013-03-23 09:40:00,44.5,36.4,30.04,SW,236,0.0,0.0,73,0.00,,,0.00,Wunderground v.1.15,2013-03-23 13:40:00,
2013-03-23 09:45:00,44.5,36.4,30.05,SW,236,0.0,0.0,73,0.00,,,0.00,Wunderground v.1.15,2013-03-23 13:45:00,
2013-03-23 09:50:00,44.6,36.1,30.04,SW,236,0.0,0.0,72,0.00,,,0.00,Wunderground v.1.15,2013-03-23 13:50:00,
2013-03-23 09:55:00,44.7,36.6,30.04,SW,236,0.0,0.0,73,0.00,,,0.00,Wunderground v.1.15,2013-03-23 13:55:00,
2013-03-23 10:00:00,44.7,36.2,30.04,SW,236,0.0,0.0,72,0.00,,,0.00,Wunderground v.1.15,2013-03-23 14:00:00,
2013-03-23 10:05:00,44.8,36.3,30.04,SW,236,0.0,3.0,72,0.00,,,0.00,Wunderground v.1.15,2013-03-23 14:05:00,
2013-03-23 10:10:00,44.9,36.1,30.05,SW,236,0.0,3.0,71,0.00,,,0.00,Wunderground v.1.15,2013-03-23 14:10:00,
2013-03-23 10:15:00,45.0,36.9,30.05,SW,236,0.0,3.0,73,0.00,,,0.00,Wunderground v.1.15,2013-03-23 14:15:00,
2013-03-23 10:25:00,45.1,36.6,30.05,SW,236,0.0,3.0,72,0.00,,,0.00,Wunderground v.1.15,2013-03-23 14:25:00,
2013-03-23 10:30:00,45.2,36.7,30.04,SW,236,0.0,3.0,72,0.00,,,0.00,Wunderground v.1.15,2013-03-23 14:30:00,
2013-03-23 10:35:00,45.2,36.4,30.05,SW,236,0.0,3.0,71,0.00,,,0.00,Wunderground v.1.15,2013-03-23 14:35:00,
2013-03-23 10:40:00,45.3,36.8,30.05,SW,229,0.0,3.0,72,0.00,,,0.00,Wunderground v.1.15,2013-03-23 14:40:00,
2013-03-23 10:45:00,45.4,37.6,30.06,SW,222,1.0,3.0,74,0.00,,,0.00,Wunderground v.1.15,2013-03-23 14:45:00,
2013-03-23 10:50:00,45.2,37.7,30.06,West,259,1.0,1.0,75,0.00,,,0.00,Wunderground v.1.15,2013-03-23 14:50:00,
2013-03-23 10:55:00,45.1,37.3,30.06,West,259,1.0,2.0,74,0.00,,,0.00,Wunderground v.1.15,2013-03-23 14:55:00,
2013-03-23 11:00:00,45.0,37.2,30.06,West,259,0.0,3.0,74,0.00,,,0.00,Wunderground v.1.15,2013-03-23 15:00:00,
2013-03-23 11:05:00,45.0,37.6,30.06,West,259,1.0,3.0,75,0.00,,,0.00,Wunderground v.1.15,2013-03-23 15:05:00,
2013-03-23 11:10:00,45.0,37.6,30.06,West,259,1.0,1.0,75,0.00,,,0.00,Wunderground v.1.15,2013-03-23 15:10:00,
2013-03-23 11:15:00,45.0,37.9,30.06,WSW,256,1.0,3.0,76,0.00,,,0.00,Wunderground v.1.15,2013-03-23 15:15:00,
2013-03-23 11:20:00,45.1,37.6,30.07,WSW,256,0.0,3.0,75,0.00,,,0.00,Wunderground v.1.15,2013-03-23 15:20:00,
2013-03-23 11:25:00,44.9,37.5,30.06,WSW,256,0.0,3.0,75,0.00,,,0.00,Wunderground v.1.15,2013-03-23 15:25:00,
2013-03-23 11:30:00,44.9,37.8,30.06,WSW,256,0.0,3.0,76,0.00,,,0.00,Wunderground v.1.15,2013-03-23 15:30:00,
2013-03-23 11:35:00,44.8,37.4,30.06,WSW,256,0.0,3.0,75,0.00,,,0.00,Wunderground v.1.15,2013-03-23 15:35:00,
2013-03-23 11:40:00,44.8,37.7,30.05,WSW,256,0.0,3.0,76,0.00,,,0.00,Wunderground v.1.15,2013-03-23 15:40:00,
2013-03-23 11:45:00,44.8,37.4,30.05,WNW,298,0.0,3.0,75,0.00,,,0.00,Wunderground v.1.15,2013-03-23 15:45:00,
2013-03-23 11:50:00,44.8,36.7,30.05,NNE,22,0.0,3.0,73,0.00,,,0.00,Wunderground v.1.15,2013-03-23 15:50:00,
2013-03-23 11:55:00,44.8,36.7,30.05,SE,132,0.0,3.0,73,0.00,,,0.00,Wunderground v.1.15,2013-03-23 15:55:00,
2013-03-23 12:00:00,44.9,36.8,30.04,NNE,30,0.0,3.0,73,0.00,,,0.00,Wunderground v.1.15,2013-03-23 16:00:00,
2013-03-23 12:05:00,45.1,37.0,30.04,South,176,0.0,3.0,73,0.00,,,0.00,Wunderground v.1.15,2013-03-23 16:05:00,
2013-03-23 12:10:00,45.3,36.8,30.03,ENE,73,1.0,3.0,72,0.00,,,0.00,Wunderground v.1.15,2013-03-23 16:10:00,
2013-03-23 12:15:00,45.4,37.2,30.03,ESE,106,1.0,3.0,73,0.00,,,0.00,Wunderground v.1.15,2013-03-23 16:15:00,
2013-03-23 12:20:00,45.6,37.1,30.03,NE,42,1.0,3.0,72,0.00,,,0.00,Wunderground v.1.15,2013-03-23 16:20:00,
2013-03-23 12:25:00,45.9,37.4,30.02,East,88,1.0,3.0,72,0.00,,,0.00,Wunderground v.1.15,2013-03-23 16:25:00,
2013-03-23 12:30:00,46.3,38.1,30.02,ENE,59,1.0,4.0,73,0.00,,,0.00,Wunderground v.1.15,2013-03-23 16:30:00,
2013-03-23 12:35:00,46.8,38.2,30.02,North,9,2.0,4.0,72,0.00,,,0.00,Wunderground v.1.15,2013-03-23 16:35:00,
2013-03-23 12:40:00,46.8,37.9,30.02,East,86,2.0,2.0,71,0.00,,,0.00,Wunderground v.1.15,2013-03-23 16:40:00,
2013-03-23 12:45:00,46.8,37.9,30.01,SSE,149,1.0,3.0,71,0.00,,,0.00,Wunderground v.1.15,2013-03-23 16:45:00,
2013-03-23 12:50:00,46.8,38.2,30.01,SSE,168,1.0,1.0,72,0.00,,,0.00,Wunderground v.1.15,2013-03-23 16:50:00,
2013-03-23 12:55:00,46.9,38.3,30.01,South,173,1.0,2.0,72,0.00,,,0.00,Wunderground v.1.15,2013-03-23 16:55:00,
2013-03-23 13:00:00,47.0,38.1,30.01,North,360,0.0,3.0,71,0.00,,,0.00,Wunderground v.1.15,2013-03-23 17:00:00,
2013-03-23 13:05:00,47.0,38.4,30.01,SSE,154,0.0,3.0,72,0.00,,,0.00,Wunderground v.1.15,2013-03-23 17:05:00,
2013-03-23 13:10:00,47.2,38.6,30.01,NNE,16,1.0,3.0,72,0.00,,,0.00,Wunderground v.1.15,2013-03-23 17:10:00,
2013-03-23 13:15:00,47.3,38.7,30.01,East,99,1.0,3.0,72,0.00,,,0.00,Wunderground v.1.15,2013-03-23 17:15:00,
2013-03-23 13:20:00,47.5,38.9,30.00,SSE,159,1.0,3.0,72,0.00,,,0.00,Wunderground v.1.15,2013-03-23 17:20:00,
2013-03-23 13:25:00,47.7,39.1,30.01,East,92,1.0,3.0,72,0.00,,,0.00,Wunderground v.1.15,2013-03-23 17:25:00,
2013-03-23 13:30:00,47.6,38.7,30.01,SSE,158,0.0,3.0,71,0.00,,,0.00,Wunderground v.1.15,2013-03-23 17:30:00,
2013-03-23 13:35:00,47.6,38.7,30.01,SSW,194,0.0,3.0,71,0.00,,,0.00,Wunderground v.1.15,2013-03-23 17:35:00,
2013-03-23 13:40:00,47.7,38.8,30.01,SSW,208,0.0,3.0,71,0.00,,,0.00,Wunderground v.1.15,2013-03-23 17:40:00,
2013-03-23 13:45:00,47.8,38.8,30.01,SSW,195,0.0,3.0,71,0.00,,,0.00,Wunderground v.1.15,2013-03-23 17:45:00,
2013-03-23 13:50:00,47.9,38.6,30.01,South,186,0.0,3.0,70,0.00,,,0.00,Wunderground v.1.15,2013-03-23 17:50:00,
2013-03-23 13:55:00,47.9,38.6,30.00,South,177,0.0,3.0,70,0.00,,,0.00,Wunderground v.1.15,2013-03-23 17:55:00,
2013-03-23 14:05:00,48.0,39.0,30.00,SSE,159,0.0,3.0,71,0.00,,,0.00,Wunderground v.1.15,2013-03-23 18:05:00,
2013-03-23 14:10:00,48.2,39.6,29.99,SSE,148,0.0,3.0,72,0.00,,,0.00,Wunderground v.1.15,2013-03-23 18:10:00,
2013-03-23 14:15:00,48.4,39.4,29.99,SSE,147,0.0,3.0,71,0.00,,,0.00,Wunderground v.1.15,2013-03-23 18:15:00,
2013-03-23 14:20:00,48.7,39.7,29.99,ESE,113,1.0,3.0,71,0.00,,,0.00,Wunderground v.1.15,2013-03-23 18:20:00,
2013-03-23 14:25:00,49.0,39.6,29.99,South,188,0.0,3.0,70,0.00,,,0.00,Wunderground v.1.15,2013-03-23 18:25:00,
2013-03-23 14:30:00,49.2,40.2,29.98,SSW,213,0.0,3.0,71,0.00,,,0.00,Wunderground v.1.15,2013-03-23 18:30:00,
2013-03-23 14:35:00,49.4,39.7,29.99,SSW,202,0.0,3.0,69,0.00,,,0.00,Wunderground v.1.15,2013-03-23 18:35:00,
2013-03-23 14:40:00,49.5,39.7,29.98,SSW,202,0.0,3.0,69,0.00,,,0.00,Wunderground v.1.15,2013-03-23 18:40:00,
2013-03-23 14:45:00,49.7,40.3,29.98,SSW,202,0.0,3.0,70,0.00,,,0.00,Wunderground v.1.15,2013-03-23 18:45:00,
2013-03-23 14:50:00,49.7,39.9,29.98,SSW,204,0.0,3.0,69,0.00,,,0.00,Wunderground v.1.15,2013-03-23 18:50:00,
2013-03-23 14:55:00,49.8,40.4,29.97,SSW,198,0.0,3.0,70,0.00,,,0.00,Wunderground v.1.15,2013-03-23 18:55:00,
2013-03-23 15:00:00,49.9,40.5,29.97,SSW,198,0.0,3.0,70,0.00,,,0.00,Wunderground v.1.15,2013-03-23 19:00:00,
2013-03-23 15:05:00,50.1,41.1,29.97,SSW,199,0.0,3.0,71,0.00,,,0.00,Wunderground v.1.15,2013-03-23 19:05:00,
2013-03-23 15:10:00,50.0,40.2,29.97,South,173,0.0,3.0,69,0.00,,,0.00,Wunderground v.1.15,2013-03-23 19:10:00,
2013-03-23 15:15:00,50.1,40.3,29.97,South,175,0.0,3.0,69,0.00,,,0.00,Wunderground v.1.15,2013-03-23 19:15:00,
2013-03-23 15:20:00,50.1,40.3,29.97,South,175,0.0,3.0,69,0.00,,,0.00,Wunderground v.1.15,2013-03-23 19:20:00,
2013-03-23 15:30:00,50.6,41.2,29.96,South,175,0.0,3.0,70,0.00,,,0.00,Wunderground v.1.15,2013-03-23 19:30:00,
2013-03-23 15:35:00,50.6,40.8,29.96,South,175,0.0,3.0,69,0.00,,,0.00,Wunderground v.1.15,2013-03-23 19:35:00,
2013-03-23 15:40:00,50.9,41.5,29.96,South,189,0.0,3.0,70,0.00,,,0.00,Wunderground v.1.15,2013-03-23 19:40:00,
2013-03-23 15:45:00,51.4,41.9,29.95,South,178,0.0,3.0,70,0.00,,,0.00,Wunderground v.1.15,2013-03-23 19:45:00,
2013-03-23 15:50:00,51.7,40.7,29.95,South,178,0.0,3.0,66,0.00,,,0.00,Wunderground v.1.15,2013-03-23 19:50:00,
2013-03-23 15:55:00,52.0,40.6,29.95,SSE,158,0.0,3.0,65,0.00,,,0.00,Wunderground v.1.15,2013-03-23 19:55:00,
2013-03-23 16:00:00,52.1,40.7,29.94,SSW,194,1.0,1.0,65,0.00,,,0.00,Wunderground v.1.15,2013-03-23 20:00:00,
2013-03-23 16:05:00,52.7,41.3,29.94,SSE,148,1.0,3.0,65,0.00,,,0.00,Wunderground v.1.15,2013-03-23 20:05:00,
2013-03-23 16:10:00,52.8,41.0,29.95,NNE,32,1.0,3.0,64,0.00,,,0.00,Wunderground v.1.15,2013-03-23 20:10:00,
2013-03-23 16:15:00,53.3,41.4,29.94,South,187,1.0,3.0,64,0.00,,,0.00,Wunderground v.1.15,2013-03-23 20:15:00,
2013-03-23 16:20:00,53.5,41.2,29.94,ESE,114,1.0,1.0,63,0.00,,,0.00,Wunderground v.1.15,2013-03-23 20:20:00,
2013-03-23 16:25:00,53.7,41.0,29.93,SSW,192,1.0,3.0,62,0.00,,,0.00,Wunderground v.1.15,2013-03-23 20:25:00,
2013-03-23 16:30:00,54.1,41.8,29.93,NE,44,1.0,1.0,63,0.00,,,0.00,Wunderground v.1.15,2013-03-23 20:30:00,
2013-03-23 16:35:00,54.8,42.0,29.94,South,173,0.0,3.0,62,0.00,,,0.00,Wunderground v.1.15,2013-03-23 20:35:00,
2013-03-23 16:40:00,54.8,41.6,29.94,South,176,1.0,3.0,61,0.00,,,0.00,Wunderground v.1.15,2013-03-23 20:40:00,
2013-03-23 16:45:00,55.0,41.8,29.93,SSE,159,0.0,3.0,61,0.00,,,0.00,Wunderground v.1.15,2013-03-23 20:45:00,
2013-03-23 16:50:00,55.2,42.0,29.93,ENE,67,0.0,3.0,61,0.00,,,0.00,Wunderground v.1.15,2013-03-23 20:50:00,
2013-03-23 16:55:00,55.5,41.8,29.92,SSE,161,0.0,3.0,60,0.00,,,0.00,Wunderground v.1.15,2013-03-23 20:55:00,
2013-03-23 17:00:00,55.4,41.3,29.92,East,81,1.0,1.0,59,0.00,,,0.00,Wunderground v.1.15,2013-03-23 21:00:00,
2013-03-23 17:05:00,55.8,41.7,29.91,East,80,1.0,1.0,59,0.00,,,0.00,Wunderground v.1.15,2013-03-23 21:05:00,
2013-03-23 17:10:00,56.1,42.4,29.92,SE,146,0.0,1.0,60,0.00,,,0.00,Wunderground v.1.15,2013-03-23 21:10:00,
2013-03-23 17:15:00,55.6,41.9,29.92,South,175,1.0,1.0,60,0.00,,,0.00,Wunderground v.1.15,2013-03-23 21:15:00,
2013-03-23 17:20:00,55.5,41.8,29.92,NE,48,1.0,1.0,60,0.00,,,0.00,Wunderground v.1.15,2013-03-23 21:20:00,
2013-03-23 17:25:00,55.6,42.4,29.92,South,180,1.0,1.0,61,0.00,,,0.00,Wunderground v.1.15,2013-03-23 21:25:00,
2013-03-23 17:30:00,55.4,42.6,29.92,South,175,0.0,1.0,62,0.00,,,0.00,Wunderground v.1.15,2013-03-23 21:30:00,
2013-03-23 17:35:00,55.8,42.1,29.92,ESE,120,0.0,1.0,60,0.00,,,0.00,Wunderground v.1.15,2013-03-23 21:35:00,
2013-03-23 17:40:00,56.4,42.2,29.92,NE,50,0.0,0.0,59,0.00,,,0.00,Wunderground v.1.15,2013-03-23 21:40:00,
2013-03-23 17:45:00,56.8,41.7,29.92,SE,146,0.0,0.0,57,0.00,,,0.00,Wunderground v.1.15,2013-03-23 21:45:00,
2013-03-23 17:50:00,56.9,41.4,29.91,East,90,0.0,1.0,56,0.00,,,0.00,Wunderground v.1.15,2013-03-23 21:50:00,
2013-03-23 17:55:00,56.8,42.2,29.91,ENE,70,1.0,1.0,58,0.00,,,0.00,Wunderground v.1.15,2013-03-23 21:55:00,
2013-03-23 18:00:00,56.9,41.4,29.91,SSE,163,0.0,1.0,56,0.00,,,0.00,Wunderground v.1.15,2013-03-23 22:00:00,
2013-03-23 18:05:00,56.6,41.5,29.91,SSE,151,0.0,4.0,57,0.00,,,0.00,Wunderground v.1.15,2013-03-23 22:05:00,
2013-03-23 18:10:00,56.3,40.8,29.91,West,269,0.0,4.0,56,0.00,,,0.00,Wunderground v.1.15,2013-03-23 22:10:00,
2013-03-23 18:15:00,56.3,41.3,29.91,SSE,151,0.0,4.0,57,0.00,,,0.00,Wunderground v.1.15,2013-03-23 22:15:00,
2013-03-23 18:20:00,56.4,42.7,29.92,SE,130,0.0,4.0,60,0.00,,,0.00,Wunderground v.1.15,2013-03-23 22:20:00,
2013-03-23 18:25:00,56.3,42.6,29.91,SE,130,0.0,4.0,60,0.00,,,0.00,Wunderground v.1.15,2013-03-23 22:25:00,
2013-03-23 18:30:00,56.3,42.1,29.91,NE,37,0.0,4.0,59,0.00,,,0.00,Wunderground v.1.15,2013-03-23 22:30:00,
2013-03-23 18:35:00,56.5,42.3,29.92,NE,37,0.0,4.0,59,0.00,,,0.00,Wunderground v.1.15,2013-03-23 22:35:00,
2013-03-23 18:40:00,56.5,41.9,29.92,SSE,155,0.0,4.0,58,0.00,,,0.00,Wunderground v.1.15,2013-03-23 22:40:00,
2013-03-23 18:45:00,56.2,41.2,29.91,SSE,155,0.0,4.0,57,0.00,,,0.00,Wunderground v.1.15,2013-03-23 22:45:00,
2013-03-23 18:50:00,55.9,40.4,29.91,SSE,155,0.0,4.0,56,0.00,,,0.00,Wunderground v.1.15,2013-03-23 22:50:00,
2013-03-23 18:55:00,55.2,40.7,29.92,SSE,155,0.0,4.0,58,0.00,,,0.00,Wunderground v.1.15,2013-03-23 22:55:00,
2013-03-23 19:00:00,54.5,40.5,29.92,SSE,155,0.0,4.0,59,0.00,,,0.00,Wunderground v.1.15,2013-03-23 23:00:00,
2013-03-23 19:05:00,54.1,40.5,29.92,SSE,155,0.0,4.0,60,0.00,,,0.00,Wunderground v.1.15,2013-03-23 23:05:00,
2013-03-23 19:10:00,53.9,41.2,29.92,SSE,155,0.0,4.0,62,0.00,,,0.00,Wunderground v.1.15,2013-03-23 23:10:00,
2013-03-23 19:15:00,53.7,41.0,29.92,SSE,155,0.0,4.0,62,0.00,,,0.00,Wunderground v.1.15,2013-03-23 23:15:00,
2013-03-23 19:20:00,53.2,41.3,29.92,SSE,155,0.0,4.0,64,0.00,,,0.00,Wunderground v.1.15,2013-03-23 23:20:00,
2013-03-23 19:25:00,52.7,41.7,29.92,SSE,155,0.0,4.0,66,0.00,,,0.00,Wunderground v.1.15,2013-03-23 23:25:00,
2013-03-23 19:30:00,52.1,41.1,29.93,SSE,155,0.0,4.0,66,0.00,,,0.00,Wunderground v.1.15,2013-03-23 23:30:00,
2013-03-23 19:35:00,51.8,40.8,29.93,SSE,155,0.0,4.0,66,0.00,,,0.00,Wunderground v.1.15,2013-03-23 23:35:00,
2013-03-23 19:40:00,51.5,40.9,29.93,SSE,155,0.0,4.0,67,0.00,,,0.00,Wunderground v.1.15,2013-03-23 23:40:00,
2013-03-23 19:45:00,51.0,41.2,29.93,SSE,155,0.0,4.0,69,0.00,,,0.00,Wunderground v.1.15,2013-03-23 23:45:00,
2013-03-23 19:50:00,50.6,41.2,29.93,SSE,155,0.0,4.0,70,0.00,,,0.00,Wunderground v.1.15,2013-03-23 23:50:00,
2013-03-23 19:55:00,50.2,40.8,29.93,SSE,155,0.0,4.0,70,0.00,,,0.00,Wunderground v.1.15,2013-03-23 23:55:00,
2013-03-23 20:00:00,49.6,40.9,29.93,SSE,155,0.0,4.0,72,0.00,,,0.00,Wunderground v.1.15,2013-03-24 00:00:00,
2013-03-23 20:05:00,49.2,40.6,29.93,SSE,155,0.0,4.0,72,0.00,,,0.00,Wunderground v.1.15,2013-03-24 00:05:00,
2013-03-23 20:10:00,48.9,40.6,29.94,SSE,155,0.0,4.0,73,0.00,,,0.00,Wunderground v.1.15,2013-03-24 00:10:00,
2013-03-23 20:15:00,48.6,40.7,29.94,SSE,155,0.0,4.0,74,0.00,,,0.00,Wunderground v.1.15,2013-03-24 00:15:00,
2013-03-23 20:20:00,48.5,40.9,29.94,SSE,155,0.0,4.0,75,0.00,,,0.00,Wunderground v.1.15,2013-03-24 00:20:00,
2013-03-23 20:25:00,48.6,41.0,29.93,SSE,155,0.0,4.0,75,0.00,,,0.00,Wunderground v.1.15,2013-03-24 00:25:00,
2013-03-23 20:30:00,48.8,41.2,29.93,SSE,155,0.0,4.0,75,0.00,,,0.00,Wunderground v.1.15,2013-03-24 00:30:00,
2013-03-23 20:40:00,49.1,41.9,29.94,SSE,155,0.0,4.0,76,0.00,,,0.00,Wunderground v.1.15,2013-03-24 00:40:00,
2013-03-23 20:45:00,49.2,41.6,29.94,SSE,155,0.0,4.0,75,0.00,,,0.00,Wunderground v.1.15,2013-03-24 00:45:00,
2013-03-23 20:50:00,49.3,41.7,29.94,SSE,153,0.0,4.0,75,0.00,,,0.00,Wunderground v.1.15,2013-03-24 00:50:00,
2013-03-23 20:55:00,49.4,41.5,29.94,ENE,72,0.0,4.0,74,0.00,,,0.00,Wunderground v.1.15,2013-03-24 00:55:00,
2013-03-23 21:00:00,49.6,41.7,29.94,ENE,72,0.0,4.0,74,0.00,,,0.00,Wunderground v.1.15,2013-03-24 01:00:00,
2013-03-23 21:05:00,49.7,41.4,29.94,ENE,74,0.0,4.0,73,0.00,,,0.00,Wunderground v.1.15,2013-03-24 01:05:00,
2013-03-23 21:10:00,49.9,41.2,29.94,ENE,73,0.0,4.0,72,0.00,,,0.00,Wunderground v.1.15,2013-03-24 01:10:00,
2013-03-23 21:15:00,50.0,41.3,29.94,ENE,73,0.0,4.0,72,0.00,,,0.00,Wunderground v.1.15,2013-03-24 01:15:00,
2013-03-23 21:20:00,50.0,41.3,29.95,ENE,73,0.0,4.0,72,0.00,,,0.00,Wunderground v.1.15,2013-03-24 01:20:00,
2013-03-23 21:25:00,50.0,41.0,29.95,ENE,73,0.0,4.0,71,0.00,,,0.00,Wunderground v.1.15,2013-03-24 01:25:00,
2013-03-23 21:30:00,49.9,40.9,29.95,ENE,73,0.0,4.0,71,0.00,,,0.00,Wunderground v.1.15,2013-03-24 01:30:00,
2013-03-23 21:35:00,50.0,41.0,29.95,ENE,73,0.0,4.0,71,0.00,,,0.00,Wunderground v.1.15,2013-03-24 01:35:00,
2013-03-23 21:45:00,49.9,41.2,29.95,East,84,0.0,4.0,72,0.00,,,0.00,Wunderground v.1.15,2013-03-24 01:45:00,
2013-03-23 21:50:00,49.9,41.2,29.95,ENE,59,0.0,4.0,72,0.00,,,0.00,Wunderground v.1.15,2013-03-24 01:50:00,
2013-03-23 21:55:00,49.8,41.1,29.94,ENE,59,0.0,4.0,72,0.00,,,0.00,Wunderground v.1.15,2013-03-24 01:55:00,
2013-03-23 22:00:00,49.6,40.9,29.94,East,79,0.0,4.0,72,0.00,,,0.00,Wunderground v.1.15,2013-03-24 02:00:00,
2013-03-23 22:05:00,49.6,41.3,29.94,East,90,0.0,-999.0,73,0.00,,,0.00,Wunderground v.1.15,2013-03-24 02:05:00,
2013-03-23 22:10:00,49.6,41.3,29.94,East,90,0.0,-999.0,73,0.00,,,0.00,Wunderground v.1.15,2013-03-24 02:10:00,
2013-03-23 22:15:00,48.7,41.1,29.95,East,90,0.0,-999.0,75,0.00,,,0.00,Wunderground v.1.15,2013-03-24 02:15:00,
2013-03-23 22:20:00,48.7,41.1,29.95,East,90,0.0,-999.0,75,0.00,,,0.00,Wunderground v.1.15,2013-03-24 02:20:00,
2013-03-23 22:25:00,48.7,41.1,29.95,East,90,0.0,-999.0,75,0.00,,,0.00,Wunderground v.1.15,2013-03-24 02:25:00,
2013-03-23 22:30:00,48.7,41.1,29.95,East,90,0.0,-999.0,75,0.00,,,0.00,Wunderground v.1.15,2013-03-24 02:30:00,
2013-03-23 22:35:00,48.7,41.1,29.95,East,90,0.0,-999.0,75,0.00,,,0.00,Wunderground v.1.15,2013-03-24 02:35:00,
2013-03-23 22:40:00,48.7,41.1,29.95,East,90,0.0,-999.0,75,0.00,,,0.00,Wunderground v.1.15,2013-03-24 02:40:00,
2013-03-23 22:45:00,47.5,41.0,29.93,ENE,68,0.0,-999.0,78,0.00,,,0.00,Wunderground v.1.15,2013-03-24 02:45:00,
2013-03-23 22:50:00,47.5,41.0,29.93,ENE,68,0.0,-999.0,78,0.00,,,0.00,Wunderground v.1.15,2013-03-24 02:50:00,
2013-03-23 22:55:00,47.5,41.0,29.93,ENE,68,0.0,-999.0,78,0.00,,,0.00,Wunderground v.1.15,2013-03-24 02:55:00,
2013-03-23 23:00:00,47.5,41.0,29.93,ENE,68,0.0,-999.0,78,0.00,,,0.00,Wunderground v.1.15,2013-03-24 03:00:00,
2013-03-23 23:05:00,47.5,41.0,29.93,ENE,68,0.0,-999.0,78,0.00,,,0.00,Wunderground v.1.15,2013-03-24 03:05:00,
2013-03-23 23:10:00,47.5,41.0,29.93,ENE,68,0.0,-999.0,78,0.00,,,0.00,Wunderground v.1.15,2013-03-24 03:10:00,
2013-03-23 23:15:00,46.6,40.8,29.94,NE,45,0.0,-999.0,80,0.00,,,0.00,Wunderground v.1.15,2013-03-24 03:15:00,
2013-03-23 23:20:00,46.6,40.8,29.94,NE,45,0.0,-999.0,80,0.00,,,0.00,Wunderground v.1.15,2013-03-24 03:20:00,
2013-03-23 23:25:00,46.6,40.8,29.94,NE,45,0.0,-999.0,80,0.00,,,0.00,Wunderground v.1.15,2013-03-24 03:25:00,
2013-03-23 23:30:00,46.6,40.8,29.94,NE,45,0.0,-999.0,80,0.00,,,0.00,Wunderground v.1.15,2013-03-24 03:30:00,
2013-03-23 23:35:00,46.6,40.8,29.94,NE,45,0.0,-999.0,80,0.00,,,0.00,Wunderground v.1.15,2013-03-24 03:35:00,
2013-03-23 23:40:00,46.6,40.8,29.94,NE,45,0.0,-999.0,80,0.00,,,0.00,Wunderground v.1.15,2013-03-24 03:40:00,
2013-03-23 23:45:00,45.5,40.0,29.92,ESE,113,0.0,-999.0,81,0.00,,,0.00,Wunderground v.1.15,2013-03-24 03:45:00,
2013-03-23 23:50:00,45.5,40.0,29.92,ESE,113,0.0,-999.0,81,0.00,,,0.00,Wunderground v.1.15,2013-03-24 03:50:00,
2013-03-23 23:55:00,45.5,40.0,29.92,ESE,113,0.0,-999.0,81,0.00,,,0.00,Wunderground v.1.15,2013-03-24 03:55:00,